Location: Soapstone Prairie Natural Area
(40.9437°N, 105.0829°W)
Time: 15:35:48
(UTC-07:00)

ISS - Visible Passes

Search period start: 31 January 2015 00:00
Search period end: 10 February 2015 00:00
Orbit: 400 x 408 km, 51.6° (Epoch: 31 January)

Date Brightness Start Highest point End Pass type
(mag) Time Alt. Az. Time Alt. Az. Time Alt. Az.
03 Feb -1.6 18:54:26 10° SSW 18:56:15 22° SSE 18:56:15 22° SSE visible
04 Feb -1.2 18:03:20 10° SSE 18:04:57 13° SE 18:06:31 11° ESE visible
04 Feb -0.9 19:37:50 10° WSW 19:39:12 23° WSW 19:39:12 23° WSW visible
05 Feb -3.3 18:45:27 10° SW 18:48:40 63° SE 18:49:20 48° E visible
06 Feb -2.3 17:53:23 10° SSW 17:56:18 31° SE 17:59:16 10° ENE visible
06 Feb -1.4 19:29:46 10° W 19:32:00 29° NW 19:32:00 29° NW visible
07 Feb -2.8 18:36:59 10° WSW 18:40:11 54° NNW 18:41:55 24° NE visible
08 Feb -1.2 19:21:55 10° WNW 19:24:23 20° NNW 19:24:23 20° NNW visible
09 Feb -1.7 18:28:50 10° W 18:31:44 28° NNW 18:34:06 13° NNE visible
